Terminal Aerodrome Forecast
Issued by NWS

Home | Current Version | Previous Version | Text Only | Print | Product List | Glossary On
Versions: 1 2 3 4 5 6 7 8 9 10 11 12 13 14 15 16 17 18 19 20 21 22 23 24 25 26 27 28 29 30 31 32 33 34 35 36
000
FTUS45 KGJT 221141
TAFDRO
TAF
KDRO 221141Z 2212/2312 29015G25KT P6SM SCT050 WS020/32040KT
     FM221500 29010G20KT P6SM SCT025 BKN050 WS020/32040KT
     FM221800 27020G35KT P6SM VCSH SCT030 BKN050
     FM230400 27010KT P6SM SCT050=

USA.gov is the U.S. government's official web portal to all federal, state and local government web resources and services.